QPF
0.01 0.00 0.00 0.00 0.00 0.00 0.00 0.00 0.00 0.00 0.00 0.00 0.00 0.00 0.00 0.00 0.00 0.00 0.00 0.00 0.00 0.00 0.00 0.00 0.00 0.00 0.00 0.00 0.00 0.00 0.00 0.01 0.01 0.02 0.02 0.03 0.02 0.02 0.02 0.02 0.02 0.01 0.01
0.01 0.00 0.00 0.00 0.00 0.00 0.00 0.00 0.00 0.00 0.00 0.00 0.00 0.00 0.00 0.00 0.00 0.00 0.00 0.00 0.00 0.00 0.00 0.00 0.00 0.00 0.00 0.00 0.00 0.00 0.00 0.01 0.01 0.03 0.03 0.03 0.02 0.02 0.02 0.03 0.03 0.02 0.01
0.01 0.00 0.00 0.00 0.00 0.00 0.00 0.00 0.00 0.00 0.00 0.00 0.00 0.00 0.00 0.00 0.00 0.00 0.00 0.00 0.00 0.00 0.00 0.00 0.00 0.00 0.00 0.00 0.00 0.00 0.00 0.01 0.02 0.03 0.04 0.04 0.04 0.03 0.02 0.02 0.02 0.02 0.01
0.01 0.00 0.00 0.00 0.00 0.00 0.00 0.00 0.00 0.00 0.00 0.00 0.00 0.00 0.00 0.00 0.00 0.00 0.00 0.00 0.00 0.00 0.00 0.00 0.00 0.00 0.00 0.00 0.00 0.00 0.00 0.01 0.03 0.05 0.05 0.08 0.08 0.06 0.04 0.03 0.01 0.01 0.00
0.01 0.00 0.00 0.00 0.00 0.00 0.00 0.00 0.00 0.00 0.00 0.00 0.00 0.00 0.00 0.00 0.00 0.00 0.00 0.01 0.00 0.00 0.00 0.00 0.00 0.00 0.00 0.01 0.01 0.00 0.01 0.02 0.04 0.07 0.07 0.09 0.10 0.09 0.07 0.04 0.02 0.01 0.00
0.00 0.00 0.00 0.00 0.00 0.00 0.00 0.00 0.00 0.00 0.00 0.00 0.00 0.00 0.00 0.00 0.00 0.00 0.01 0.01 0.00 0.00 0.00 0.00 0.00 0.00 0.00 0.00 0.00 0.00 0.00 0.02 0.04 0.07 0.09 0.10 0.10 0.10 0.08 0.05 0.03 0.01 0.00
0.00 0.00 0.00 0.00 0.00 0.00 0.00 0.00 0.00 0.00 0.00 0.00 0.00 0.00 0.00 0.00 0.00 0.00 0.00 0.00 0.00 0.00 0.00 0.00 0.00 0.00 0.00 0.00 0.00 0.00 0.01 0.02 0.04 0.09 0.13 0.14 0.12 0.12 0.10 0.07 0.04 0.03 0.02
0.00 0.00 0.00 0.00 0.00 0.00 0.00 0.00 0.00 0.00 0.00 0.00 0.00 0.00 0.00 0.00 0.00 0.00 0.00 0.00 0.00 0.00 0.00 0.00 0.00 0.00 0.00 0.00 0.00 0.00 0.01 0.02 0.04 0.10 0.14 0.16 0.11 0.11 0.12 0.08 0.06 0.04 0.03
0.01 0.00 0.00 0.00 0.00 0.00 0.00 0.00 0.00 0.00 0.00 0.00 0.00 0.00 0.00 0.00 0.01 0.01 0.00 0.00 0.00 0.00 0.00 0.00 0.00 0.00 0.00 0.00 0.00 0.00 0.01 0.03 0.04 0.09 0.12 0.14 0.11 0.10 0.10 0.08 0.06 0.04 0.03
0.01 0.01 0.00 0.00 0.00 0.00 0.00 0.00 0.00 0.00 0.00 0.00 0.00 0.00 0.00 0.00 0.01 0.01 0.00 0.00 0.00 0.00 0.00 0.00 0.00 0.00 0.00 0.00 0.00 0.01 0.01 0.03 0.04 0.07 0.12 0.11 0.10 0.11 0.10 0.08 0.06 0.06 0.04
0.04 0.06 0.04 0.01 0.01 0.01 0.00 0.00 0.00 0.00 0.00 0.00 0.00 0.00 0.00 0.00 0.00 0.00 0.01 0.01 0.01 0.01 0.01 0.00 0.01 0.01 0.01 0.01 0.01 0.02 0.02 0.03 0.04 0.08 0.14 0.12 0.12 0.13 0.11 0.08 0.07 0.06 0.05
0.08 0.14 0.12 0.04 0.02 0.01 0.00 0.00 0.00 0.00 0.00 0.00 0.00 0.00 0.00 0.00 0.01 0.01 0.02 0.04 0.04 0.03 0.02 0.02 0.02 0.01 0.01 0.01 0.02 0.03 0.02 0.03 0.06 0.12 0.14 0.12 0.12 0.16 0.15 0.09 0.07 0.05 0.05
0.07 0.08 0.07 0.04 0.03 0.04 0.02 0.02 0.03 0.02 0.01 0.01 0.01 0.01 0.01 0.01 0.02 0.03 0.03 0.04 0.04 0.03 0.02 0.02 0.02 0.01 0.01 0.02 0.03 0.04 0.04 0.05 0.11 0.22 0.18 0.14 0.14 0.15 0.15 0.10 0.08 0.07 0.08
0.06 0.08 0.07 0.05 0.05 0.06 0.06 0.06 0.08 0.07 0.03 0.01 0.01 0.02 0.01 0.02 0.03 0.04 0.04 0.04 0.04 0.03 0.03 0.03 0.02 0.03 0.04 0.05 0.08 0.09 0.08 0.09 0.12 0.15 0.13 0.13 0.17 0.16 0.13 0.09 0.07 0.07 0.06
0.05 0.07 0.10 0.09 0.06 0.05 0.05 0.05 0.08 0.10 0.07 0.09 0.06 0.03 0.03 0.04 0.04 0.04 0.04 0.04 0.04 0.04 0.05 0.05 0.05 0.06 0.06 0.07 0.12 0.09 0.07 0.10 0.15 0.15 0.13 0.14 0.14 0.15 0.12 0.09 0.06 0.06 0.04
0.05 0.07 0.09 0.09 0.06 0.06 0.07 0.07 0.08 0.09 0.08 0.10 0.10 0.07 0.07 0.07 0.08 0.08 0.07 0.08 0.09 0.07 0.06 0.07 0.08 0.07 0.09 0.09 0.10 0.12 0.11 0.10 0.14 0.14 0.10 0.13 0.12 0.09 0.10 0.10 0.10 0.07 0.05
0.10 0.11 0.12 0.10 0.10 0.10 0.11 0.08 0.06 0.06 0.06 0.06 0.07 0.08 0.09 0.10 0.11 0.09 0.09 0.09 0.09 0.08 0.06 0.07 0.09 0.11 0.10 0.07 0.06 0.09 0.12 0.12 0.14 0.14 0.13 0.10 0.08 0.08 0.09 0.08 0.09 0.09 0.09
0.11 0.13 0.15 0.15 0.15 0.14 0.11 0.09 0.08 0.07 0.06 0.05 0.05 0.06 0.07 0.08 0.09 0.09 0.08 0.06 0.07 0.07 0.06 0.06 0.06 0.05 0.05 0.04 0.04 0.04 0.05 0.06 0.06 0.05 0.06 0.07 0.06 0.06 0.07 0.08 0.09 0.10 0.10
0.18 0.18 0.18 0.17 0.16 0.15 0.13 0.11 0.11 0.09 0.07 0.06 0.05 0.05 0.06 0.06 0.06 0.06 0.06 0.06 0.06 0.06 0.06 0.05 0.05 0.05 0.03 0.02 0.02 0.02 0.02 0.02 0.02 0.03 0.03 0.05 0.06 0.07 0.07 0.08 0.12 0.13 0.10
0.27 0.28 0.24 0.19 0.16 0.19 0.18 0.15 0.14 0.12 0.12 0.09 0.06 0.05 0.05 0.05 0.05 0.05 0.06 0.06 0.06 0.05 0.05 0.04 0.03 0.03 0.03 0.02 0.02 0.01 0.01 0.01 0.01 0.02 0.03 0.04 0.07 0.09 0.09 0.12 0.13 0.11 0.09
0.24 0.20 0.21 0.25 0.23 0.18 0.16 0.16 0.17 0.16 0.13 0.11 0.08 0.08 0.08 0.07 0.07 0.07 0.08 0.07 0.05 0.05 0.06 0.06 0.06 0.05 0.04 0.03 0.03 0.02 0.01 0.01 0.01 0.01 0.02 0.04 0.05 0.07 0.10 0.12 0.13 0.11 0.10
0.21 0.22 0.18 0.20 0.18 0.14 0.14 0.14 0.13 0.12 0.12 0.15 0.15 0.13 0.09 0.07 0.07 0.07 0.09 0.10 0.10 0.09 0.09 0.08 0.07 0.05 0.03 0.03 0.03 0.03 0.01 0.01 0.01 0.01 0.02 0.02 0.04 0.07 0.10 0.13 0.12 0.12 0.13
0.21 0.20 0.17 0.19 0.15 0.13 0.15 0.17 0.15 0.12 0.12 0.14 0.15 0.12 0.09 0.07 0.07 0.06 0.06 0.08 0.12 0.13 0.11 0.09 0.07 0.05 0.04 0.03 0.03 0.03 0.02 0.01 0.01 0.01 0.01 0.02 0.04 0.08 0.10 0.12 0.13 0.10 0.12
0.12 0.16 0.11 0.10 0.12 0.14 0.15 0.14 0.15 0.17 0.17 0.14 0.14 0.16 0.14 0.12 0.10 0.09 0.07 0.06 0.07 0.08 0.09 0.08 0.06 0.04 0.04 0.04 0.03 0.03 0.03 0.03 0.03 0.02 0.02 0.03 0.03 0.04 0.07 0.12 0.12 0.09 0.09
0.05 0.08 0.13 0.17 0.16 0.15 0.14 0.16 0.18 0.21 0.22 0.22 0.22 0.24 0.22 0.16 0.12 0.09 0.08 0.07 0.07 0.05 0.04 0.04 0.04 0.03 0.03 0.03 0.03 0.04 0.04 0.05 0.06 0.06 0.04 0.02 0.01 0.02 0.04 0.06 0.10 0.09 0.08
0.06 0.07 0.13 0.16 0.15 0.16 0.15 0.16 0.16 0.18 0.20 0.21 0.23 0.21 0.21 0.12 0.10 0.10 0.08 0.07 0.06 0.04 0.03 0.03 0.02 0.02 0.02 0.03 0.05 0.06 0.05 0.06 0.05 0.06 0.04 0.02 0.02 0.02 0.03 0.04 0.05 0.05 0.07
MSLP
1011.61 1011.04 1010.72 1010.71 1010.99 1011.48 1012.05 1012.57 1012.95 1013.17 1013.23 1013.21 1013.19 1013.24 1013.38 1013.62 1013.91 1014.20 1014.44 1014.60 1014.68 1014.71 1014.73 1014.79 1014.89 1015.06 1015.25 1015.44 1015.59 1015.69 1015.73 1015.73 1015.72 1015.73 1015.77 1015.86 1015.97 1016.10 1016.21 1016.31 1016.40 1016.48 1016.57
1011.17 1010.73 1010.53 1010.63 1010.99 1011.53 1012.11 1012.63 1013.00 1013.20 1013.26 1013.25 1013.26 1013.35 1013.53 1013.80 1014.11 1014.41 1014.64 1014.78 1014.84 1014.85 1014.85 1014.89 1014.98 1015.12 1015.29 1015.45 1015.59 1015.67 1015.71 1015.73 1015.74 1015.78 1015.85 1015.95 1016.07 1016.19 1016.30 1016.38 1016.46 1016.53 1016.62
1010.61 1010.32 1010.27 1010.50 1010.95 1011.54 1012.15 1012.66 1013.02 1013.21 1013.28 1013.29 1013.33 1013.44 1013.65 1013.93 1014.24 1014.53 1014.74 1014.86 1014.90 1014.90 1014.89 1014.91 1014.99 1015.11 1015.26 1015.40 1015.51 1015.59 1015.63 1015.66 1015.70 1015.76 1015.87 1016.00 1016.14 1016.27 1016.38 1016.46 1016.53 1016.60 1016.69
1010.04 1009.92 1010.02 1010.37 1010.91 1011.55 1012.16 1012.67 1013.02 1013.20 1013.28 1013.31 1013.37 1013.50 1013.72 1014.01 1014.31 1014.56 1014.75 1014.84 1014.87 1014.86 1014.85 1014.88 1014.95 1015.07 1015.20 1015.32 1015.41 1015.47 1015.51 1015.55 1015.61 1015.71 1015.84 1016.00 1016.17 1016.31 1016.43 1016.51 1016.58 1016.65 1016.75
1009.57 1009.61 1009.85 1010.30 1010.90 1011.56 1012.16 1012.65 1012.97 1013.15 1013.23 1013.29 1013.38 1013.54 1013.77 1014.05 1014.32 1014.54 1014.69 1014.76 1014.77 1014.76 1014.77 1014.81 1014.90 1015.03 1015.15 1015.26 1015.33 1015.37 1015.39 1015.43 1015.50 1015.62 1015.78 1015.96 1016.14 1016.30 1016.42 1016.51 1016.58 1016.66 1016.77
1009.31 1009.48 1009.83 1010.34 1010.96 1011.60 1012.16 1012.60 1012.89 1013.05 1013.15 1013.24 1013.37 1013.56 1013.81 1014.08 1014.33 1014.51 1014.62 1014.66 1014.66 1014.66 1014.68 1014.76 1014.87 1015.01 1015.14 1015.24 1015.29 1015.31 1015.31 1015.32 1015.38 1015.50 1015.67 1015.86 1016.06 1016.22 1016.35 1016.44 1016.51 1016.60 1016.73
1009.32 1009.59 1010.00 1010.52 1011.11 1011.68 1012.17 1012.53 1012.78 1012.93 1013.04 1013.18 1013.36 1013.60 1013.88 1014.15 1014.37 1014.52 1014.59 1014.60 1014.58 1014.58 1014.63 1014.73 1014.88 1015.04 1015.17 1015.26 1015.29 1015.28 1015.25 1015.23 1015.27 1015.37 1015.52 1015.71 1015.90 1016.07 1016.19 1016.29 1016.37 1016.47 1016.60
1009.59 1009.92 1010.34 1010.83 1011.34 1011.81 1012.19 1012.47 1012.65 1012.80 1012.94 1013.13 1013.38 1013.68 1014.00 1014.28 1014.48 1014.60 1014.62 1014.59 1014.54 1014.54 1014.59 1014.72 1014.89 1015.07 1015.21 1015.29 1015.30 1015.26 1015.19 1015.14 1015.14 1015.21 1015.34 1015.51 1015.69 1015.85 1015.97 1016.07 1016.16 1016.26 1016.41
1010.04 1010.38 1010.78 1011.21 1011.62 1011.96 1012.22 1012.40 1012.54 1012.67 1012.85 1013.10 1013.43 1013.80 1014.16 1014.46 1014.65 1014.73 1014.71 1014.63 1014.55 1014.52 1014.57 1014.69 1014.87 1015.06 1015.20 1015.28 1015.27 1015.20 1015.10 1015.02 1014.98 1015.02 1015.12 1015.27 1015.43 1015.58 1015.71 1015.81 1015.91 1016.02 1016.18
1010.52 1010.87 1011.22 1011.57 1011.87 1012.09 1012.24 1012.34 1012.42 1012.55 1012.77 1013.09 1013.49 1013.92 1014.32 1014.64 1014.82 1014.87 1014.80 1014.68 1014.55 1014.49 1014.51 1014.62 1014.79 1014.97 1015.11 1015.17 1015.15 1015.06 1014.94 1014.83 1014.77 1014.79 1014.87 1015.00 1015.15 1015.30 1015.42 1015.53 1015.64 1015.77 1015.94
1010.89 1011.22 1011.54 1011.82 1012.03 1012.16 1012.22 1012.25 1012.30 1012.43 1012.68 1013.05 1013.50 1013.99 1014.43 1014.76 1014.94 1014.96 1014.85 1014.68 1014.52 1014.41 1014.40 1014.48 1014.62 1014.78 1014.90 1014.96 1014.93 1014.83 1014.70 1014.58 1014.51 1014.51 1014.58 1014.70 1014.85 1015.00 1015.14 1015.26 1015.38 1015.52 1015.70
1011.02 1011.34 1011.64 1011.88 1012.04 1012.11 1012.11 1012.10 1012.13 1012.26 1012.53 1012.93 1013.41 1013.93 1014.39 1014.73 1014.91 1014.92 1014.80 1014.60 1014.40 1014.27 1014.22 1014.26 1014.37 1014.50 1014.61 1014.65 1014.61 1014.51 1014.39 1014.27 1014.20 1014.20 1014.26 1014.38 1014.54 1014.69 1014.84 1014.98 1015.13 1015.29 1015.48
1010.85 1011.18 1011.48 1011.72 1011.86 1011.92 1011.90 1011.88 1011.90 1012.02 1012.29 1012.68 1013.17 1013.68 1014.14 1014.49 1014.67 1014.70 1014.58 1014.40 1014.20 1014.06 1013.99 1014.01 1014.08 1014.18 1014.26 1014.28 1014.24 1014.14 1014.02 1013.91 1013.84 1013.85 1013.91 1014.04 1014.19 1014.36 1014.53 1014.69 1014.86 1015.04 1015.24
1010.38 1010.73 1011.07 1011.33 1011.51 1011.58 1011.58 1011.56 1011.58 1011.69 1011.92 1012.28 1012.74 1013.22 1013.66 1014.00 1014.21 1014.27 1014.20 1014.06 1013.91 1013.79 1013.74 1013.75 1013.80 1013.88 1013.93 1013.93 1013.87 1013.77 1013.65 1013.54 1013.47 1013.47 1013.53 1013.65 1013.80 1013.98 1014.16 1014.35 1014.54 1014.74 1014.97
1009.71 1010.09 1010.47 1010.78 1011.01 1011.13 1011.17 1011.16 1011.18 1011.26 1011.44 1011.74 1012.12 1012.55 1012.95 1013.29 1013.53 1013.64 1013.66 1013.62 1013.55 1013.50 1013.49 1013.52 1013.58 1013.63 1013.66 1013.64 1013.56 1013.45 1013.31 1013.19 1013.11 1013.08 1013.12 1013.22 1013.36 1013.53 1013.71 1013.92 1014.13 1014.37 1014.62
1008.96 1009.37 1009.78 1010.15 1010.43 1010.60 1010.69 1010.71 1010.72 1010.76 1010.88 1011.09 1011.38 1011.73 1012.08 1012.41 1012.68 1012.88 1013.01 1013.09 1013.14 1013.20 1013.27 1013.35 1013.43 1013.48 1013.49 1013.45 1013.35 1013.21 1013.05 1012.89 1012.77 1012.70 1012.69 1012.74 1012.85 1013.00 1013.18 1013.39 1013.63 1013.89 1014.18
1008.29 1008.69 1009.12 1009.52 1009.85 1010.07 1010.20 1010.24 1010.25 1010.26 1010.31 1010.42 1010.62 1010.87 1011.16 1011.48 1011.78 1012.05 1012.30 1012.52 1012.71 1012.90 1013.07 1013.22 1013.34 1013.41 1013.42 1013.36 1013.24 1013.07 1012.87 1012.66 1012.48 1012.35 1012.27 1012.25 1012.30 1012.40 1012.56 1012.77 1013.03 1013.32 1013.64
1007.79 1008.17 1008.59 1008.98 1009.32 1009.58 1009.74 1009.81 1009.82 1009.80 1009.79 1009.82 1009.92 1010.08 1010.31 1010.59 1010.91 1011.25 1011.60 1011.94 1012.28 1012.59 1012.87 1013.10 1013.28 1013.38 1013.40 1013.34 1013.21 1013.01 1012.77 1012.51 1012.26 1012.04 1011.87 1011.77 1011.74 1011.78 1011.90 1012.10 1012.36 1012.68 1013.04
1007.54 1007.86 1008.22 1008.57 1008.89 1009.15 1009.33 1009.43 1009.46 1009.44 1009.40 1009.37 1009.39 1009.47 1009.63 1009.87 1010.18 1010.55 1010.96 1011.40 1011.84 1012.25 1012.63 1012.94 1013.18 1013.33 1013.39 1013.34 1013.21 1013.01 1012.74 1012.43 1012.11 1011.81 1011.55 1011.34 1011.22 1011.19 1011.26 1011.42 1011.68 1012.01 1012.40
1007.54 1007.76 1008.01 1008.28 1008.55 1008.80 1008.99 1009.13 1009.19 1009.20 1009.16 1009.11 1009.08 1009.10 1009.19 1009.37 1009.64 1010.00 1010.44 1010.91 1011.40 1011.88 1012.33 1012.71 1013.01 1013.22 1013.33 1013.33 1013.23 1013.04 1012.76 1012.43 1012.06 1011.68 1011.32 1011.02 1010.80 1010.68 1010.68 1010.80 1011.03 1011.37 1011.77
1007.72 1007.82 1007.94 1008.09 1008.29 1008.50 1008.70 1008.88 1009.01 1009.07 1009.08 1009.05 1009.00 1008.98 1009.01 1009.12 1009.33 1009.63 1010.03 1010.49 1010.98 1011.48 1011.96 1012.39 1012.75 1013.02 1013.19 1013.26 1013.22 1013.08 1012.83 1012.50 1012.10 1011.66 1011.23 1010.83 1010.51 1010.30 1010.22 1010.28 1010.47 1010.79 1011.19
1007.99 1007.95 1007.92 1007.95 1008.05 1008.22 1008.43 1008.66 1008.87 1009.02 1009.11 1009.13 1009.10 1009.06 1009.05 1009.09 1009.21 1009.43 1009.75 1010.14 1010.59 1011.07 1011.54 1011.99 1012.40 1012.73 1012.99 1013.14 1013.19 1013.12 1012.93 1012.63 1012.23 1011.76 1011.27 1010.79 1010.38 1010.08 1009.91 1009.89 1010.03 1010.30 1010.69
1008.24 1008.07 1007.89 1007.79 1007.80 1007.92 1008.14 1008.43 1008.73 1008.99 1009.17 1009.27 1009.30 1009.26 1009.21 1009.19 1009.23 1009.35 1009.56 1009.86 1010.23 1010.66 1011.11 1011.56 1012.00 1012.40 1012.74 1012.99 1013.13 1013.15 1013.04 1012.79 1012.42 1011.95 1011.42 1010.89 1010.41 1010.02 1009.76 1009.66 1009.72 1009.93 1010.27
1008.38 1008.09 1007.80 1007.58 1007.50 1007.58 1007.81 1008.15 1008.53 1008.90 1009.19 1009.38 1009.46 1009.45 1009.39 1009.32 1009.28 1009.31 1009.42 1009.63 1009.92 1010.29 1010.71 1011.16 1011.62 1012.07 1012.48 1012.82 1013.06 1013.18 1013.15 1012.97 1012.65 1012.19 1011.65 1011.09 1010.55 1010.09 1009.75 1009.57 1009.55 1009.68 1009.95
1008.35 1007.98 1007.59 1007.29 1007.15 1007.19 1007.42 1007.80 1008.24 1008.69 1009.08 1009.35 1009.49 1009.52 1009.46 1009.37 1009.28 1009.25 1009.29 1009.43 1009.67 1009.99 1010.38 1010.83 1011.31 1011.79 1012.26 1012.67 1012.99 1013.19 1013.24 1013.13 1012.86 1012.44 1011.91 1011.34 1010.77 1010.26 1009.86 1009.60 1009.50 1009.55 1009.74
1008.12 1007.71 1007.28 1006.93 1006.74 1006.76 1006.99 1007.38 1007.86 1008.35 1008.79 1009.11 1009.30 1009.36 1009.33 1009.24 1009.15 1009.09 1009.12 1009.23 1009.45 1009.76 1010.14 1010.60 1011.09 1011.60 1012.10 1012.55 1012.92 1013.18 1013.28 1013.23 1013.01 1012.63 1012.14 1011.59 1011.02 1010.50 1010.06 1009.75 1009.58 1009.55 1009.65
Thickness
5804 5804 5802 5799 5796 5793 5790 5788 5785 5782 5779 5777 5774 5772 5770 5768 5766 5764 5762 5760 5757 5755 5753 5751 5749 5747 5746 5744 5743 5741 5740 5739 5737 5736 5735 5734 5732 5731 5730 5729 5727 5726 5725
5810 5805 5802 5798 5795 5792 5789 5786 5783 5780 5777 5775 5772 5770 5768 5766 5764 5762 5759 5757 5755 5753 5751 5749 5747 5745 5744 5743 5741 5740 5738 5737 5736 5735 5734 5733 5731 5730 5729 5727 5726 5724 5723
5810 5805 5800 5797 5793 5790 5787 5784 5781 5778 5775 5773 5771 5768 5766 5763 5762 5760 5757 5755 5753 5751 5749 5747 5745 5743 5742 5741 5739 5738 5736 5735 5734 5733 5732 5731 5730 5729 5728 5726 5725 5723 5722
5809 5804 5800 5796 5792 5788 5785 5782 5779 5776 5773 5771 5769 5766 5764 5762 5760 5758 5756 5753 5751 5749 5747 5745 5744 5742 5740 5739 5737 5736 5734 5733 5732 5731 5730 5729 5728 5727 5726 5725 5723 5722 5720
5806 5801 5797 5794 5790 5786 5783 5780 5777 5774 5772 5769 5767 5764 5762 5760 5758 5755 5753 5751 5749 5747 5745 5743 5741 5740 5738 5737 5736 5734 5733 5732 5731 5730 5729 5728 5727 5726 5725 5723 5722 5721 5719
5802 5799 5795 5791 5788 5784 5781 5778 5775 5772 5769 5767 5765 5762 5760 5757 5755 5753 5751 5749 5747 5745 5743 5741 5739 5738 5736 5735 5734 5733 5732 5731 5730 5729 5728 5727 5726 5725 5723 5722 5721 5719 5718
5799 5795 5792 5789 5785 5782 5779 5775 5773 5770 5767 5765 5762 5760 5757 5755 5753 5751 5749 5747 5745 5743 5742 5740 5738 5735 5734 5733 5732 5731 5730 5729 5729 5728 5727 5726 5725 5724 5723 5721 5719 5718 5717
5798 5793 5789 5785 5782 5779 5776 5773 5770 5767 5764 5762 5759 5757 5754 5752 5750 5748 5746 5744 5743 5741 5739 5737 5736 5734 5732 5731 5730 5729 5728 5727 5727 5726 5725 5724 5724 5723 5722 5719 5718 5717 5715
5794 5789 5786 5782 5779 5775 5772 5769 5766 5763 5760 5758 5755 5753 5751 5749 5747 5745 5744 5742 5740 5738 5737 5735 5733 5731 5730 5729 5728 5727 5726 5725 5724 5723 5723 5723 5722 5721 5720 5718 5717 5715 5714
5788 5785 5782 5779 5776 5772 5769 5765 5762 5759 5756 5754 5751 5749 5747 5745 5744 5742 5740 5739 5737 5736 5734 5733 5731 5729 5727 5726 5726 5725 5724 5723 5721 5721 5721 5721 5720 5720 5719 5717 5715 5714 5713
5780 5778 5777 5774 5772 5769 5765 5762 5758 5755 5752 5750 5748 5746 5744 5742 5740 5739 5738 5736 5734 5733 5731 5730 5728 5727 5725 5723 5723 5723 5722 5721 5720 5719 5719 5718 5717 5717 5717 5715 5714 5713 5712
5774 5772 5771 5769 5767 5764 5762 5758 5754 5751 5748 5746 5744 5742 5740 5738 5737 5735 5734 5733 5732 5730 5729 5727 5726 5724 5722 5720 5720 5719 5719 5719 5718 5718 5717 5716 5716 5715 5714 5714 5713 5711 5710
5772 5769 5768 5766 5764 5761 5758 5754 5751 5748 5745 5742 5740 5738 5737 5734 5733 5731 5730 5730 5729 5727 5725 5724 5723 5721 5719 5717 5716 5716 5716 5716 5716 5716 5716 5715 5715 5714 5713 5712 5711 5710 5709
5769 5768 5766 5764 5761 5758 5755 5751 5748 5745 5742 5739 5736 5735 5733 5731 5729 5728 5726 5726 5725 5723 5722 5721 5719 5718 5716 5715 5713 5713 5712 5713 5713 5713 5712 5713 5713 5711 5711 5711 5710 5708 5707
5768 5766 5764 5762 5757 5754 5751 5748 5745 5742 5739 5737 5734 5732 5730 5728 5726 5725 5723 5722 5720 5719 5718 5717 5715 5714 5712 5711 5711 5710 5709 5709 5710 5710 5709 5710 5710 5709 5708 5708 5707 5706 5705
5765 5763 5762 5759 5755 5751 5747 5744 5741 5738 5736 5732 5730 5728 5727 5724 5722 5720 5718 5717 5716 5714 5713 5712 5711 5710 5709 5708 5707 5707 5706 5706 5707 5706 5706 5706 5706 5706 5706 5705 5705 5704 5703
5762 5760 5757 5756 5751 5745 5742 5739 5737 5734 5732 5729 5727 5725 5723 5721 5718 5716 5714 5713 5711 5710 5709 5707 5706 5705 5704 5703 5702 5702 5702 5702 5703 5703 5703 5703 5702 5702 5702 5702 5702 5701 5700
5758 5754 5752 5751 5743 5738 5735 5733 5731 5730 5727 5725 5723 5721 5719 5717 5714 5712 5709 5708 5706 5704 5704 5702 5700 5698 5698 5697 5697 5697 5697 5697 5698 5698 5699 5699 5699 5698 5699 5699 5699 5698 5697
5753 5749 5745 5742 5737 5733 5728 5726 5725 5723 5722 5720 5717 5715 5714 5712 5709 5706 5704 5703 5701 5699 5697 5697 5694 5693 5691 5691 5691 5692 5692 5692 5693 5694 5694 5694 5695 5694 5694 5695 5695 5695 5694
5749 5745 5739 5735 5732 5729 5724 5719 5717 5715 5714 5713 5711 5710 5708 5706 5704 5701 5699 5697 5696 5693 5691 5690 5688 5687 5687 5686 5686 5685 5686 5687 5688 5688 5689 5690 5690 5690 5690 5690 5691 5691 5691
5743 5738 5733 5728 5724 5722 5717 5712 5709 5707 5706 5705 5705 5704 5702 5700 5698 5696 5692 5690 5689 5686 5685 5684 5682 5680 5679 5679 5677 5676 5678 5681 5683 5683 5684 5684 5684 5685 5685 5685 5686 5686 5686
5736 5732 5727 5722 5718 5715 5711 5708 5707 5703 5700 5699 5698 5696 5695 5694 5692 5690 5686 5684 5682 5680 5678 5677 5675 5673 5672 5672 5668 5665 5664 5668 5673 5677 5677 5677 5678 5679 5680 5681 5681 5681 5681
5728 5724 5720 5716 5712 5709 5706 5702 5699 5695 5692 5689 5688 5687 5686 5686 5685 5682 5680 5677 5675 5673 5671 5669 5669 5666 5663 5664 5663 5660 5656 5655 5659 5665 5668 5669 5670 5671 5673 5675 5676 5676 5676
5722 5718 5713 5710 5706 5702 5699 5696 5691 5686 5682 5681 5679 5678 5677 5677 5675 5674 5672 5670 5668 5666 5664 5663 5662 5661 5658 5656 5655 5656 5655 5654 5651 5653 5657 5661 5663 5664 5666 5668 5669 5670 5670
5716 5711 5707 5703 5699 5696 5693 5690 5685 5680 5677 5674 5671 5669 5668 5667 5666 5666 5664 5663 5661 5659 5658 5656 5655 5654 5652 5650 5649 5648 5648 5647 5647 5645 5646 5650 5654 5657 5660 5662 5663 5664 5664
5710 5706 5701 5697 5693 5690 5687 5684 5680 5675 5670 5666 5662 5659 5659 5658 5658 5657 5656 5655 5654 5652 5651 5650 5648 5647 5646 5645 5644 5642 5641 5640 5640 5640 5640 5642 5644 5649 5653 5655 5657 5657 5658